Temp
12 11 11 11 12 12 12 12 13 13 13 13 13 13 14 14 14 14 15 14 16 20 20 19 20 19 19 20 20 18 18 18 19 17 17 14 15 13 13 14 16 17 16 16 18 17 16 18 17 17 17 16 17 16
11 11 11 11 12 12 12 12 12 12 13 13 13 13 13 13 13 14 17 13 13 18 20 17 19 18 19 19 20 18 19 18 19 18 16 15 14 15 15 16 16 14 16 15 17 17 17 17 18 16 17 16 16 16
10 10 10 10 11 12 11 12 13 12 13 13 13 13 13 13 13 13 15 13 15 19 20 19 20 18 17 18 19 20 19 18 17 18 18 18 15 17 15 15 16 16 16 13 14 18 17 17 16 16 16 16 16 16
10 10 10 10 11 11 11 12 12 12 13 13 13 13 13 13 13 13 14 13 15 18 20 20 17 18 17 17 18 19 18 17 18 18 19 18 17 17 17 17 15 17 16 15 15 16 16 16 17 16 15 15 15 15
10 10 10 10 11 11 11 12 12 12 13 13 13 13 13 13 12 12 12 13 13 17 20 21 18 17 17 17 17 17 18 16 15 16 16 16 17 16 17 16 16 17 16 14 15 18 17 18 17 16 15 15 15 15
10 10 10 10 10 10 11 12 12 12 13 13 13 13 13 12 12 13 17 13 13 14 18 20 19 18 17 17 18 17 18 18 18 15 16 12 15 14 13 12 16 18 18 18 18 18 17 17 16 15 15 15 15 15
9 10 10 10 10 10 11 11 11 12 12 13 13 13 13 12 11 15 16 14 12 13 18 19 20 18 16 17 18 18 17 16 17 14 14 13 12 11 10 11 16 17 17 17 17 16 15 16 16 15 15 15 14 14
10 10 10 10 10 10 10 11 12 12 12 13 13 13 12 12 12 14 13 12 11 15 17 18 20 19 17 19 18 17 17 16 16 16 13 13 10 9 10 13 15 14 15 16 16 16 17 17 16 15 15 14 15 15
9 10 9 9 10 10 10 11 12 12 11 13 12 12 10 12 16 14 12 12 12 15 17 17 19 20 18 18 18 15 17 14 15 15 14 13 11 10 13 16 14 14 14 15 16 16 16 16 16 15 15 15 15 15
9 9 9 9 9 10 11 11 11 11 12 12 11 13 17 14 12 12 13 15 16 17 17 16 17 18 18 18 17 17 16 16 15 14 12 12 11 16 17 16 13 12 15 15 15 15 15 15 16 16 16 16 15 15
9 9 9 9 10 10 11 11 11 11 10 10 15 16 12 11 13 15 15 16 14 15 17 16 16 19 17 17 16 16 16 16 15 15 13 11 12 17 17 15 14 15 16 15 14 15 17 17 17 16 17 16 15 15
9 9 9 10 10 11 11 12 11 9 11 12 12 12 12 15 15 14 15 15 14 18 18 18 18 16 16 16 16 15 15 15 15 16 14 11 15 17 16 16 16 16 16 16 16 16 16 16 16 16 16 16 16 15
10 10 10 11 11 11 11 12 11 11 10 10 13 15 16 16 13 15 16 17 18 20 19 16 17 16 13 15 15 15 15 15 16 15 12 13 17 17 17 16 16 16 16 16 16 16 15 15 15 15 15 15 15 15
10 10 11 11 11 11 11 11 11 10 10 15 16 12 15 16 17 20 20 20 20 21 20 18 16 15 15 16 16 15 16 16 14 13 13 18 17 17 16 16 15 16 16 16 15 14 14 15 14 14 14 14 14 14
10 11 11 11 12 12 11 11 11 9 12 16 16 14 18 20 21 21 20 20 20 20 18 17 18 17 16 16 16 16 15 15 16 16 19 18 16 16 15 15 15 15 15 15 14 14 14 13 13 13 13 13 13 13
10 11 10 11 12 12 11 9 9 10 13 15 16 17 20 20 22 21 21 19 20 19 18 18 18 17 17 17 15 14 16 16 19 19 18 16 15 15 14 14 14 14 14 14 13 12 12 12 11 10 9 9 12 12
11 10 10 10 11 10 9 9 11 14 16 16 18 19 20 20 21 21 21 21 19 18 18 18 16 17 16 13 12 15 16 18 19 18 16 14 14 14 14 13 13 13 13 12 12 10 11 11 10 10 10 9 9 10
9 9 9 10 9 8 9 9 13 14 15 18 18 21 21 21 20 21 21 18 18 18 18 17 18 16 13 11 12 17 19 19 17 16 16 14 14 13 13 13 12 12 12 11 11 11 10 10 9 8 6 8 9 8
9 9 9 9 9 10 14 13 12 16 18 19 20 21 20 21 20 19 19 19 18 16 16 12 12 11 10 10 14 18 19 18 16 16 15 13 13 12 12 12 12 12 11 11 11 11 11 9 7 5 5 6 8 6
10 11 11 11 9 12 14 15 13 14 17 20 20 20 20 20 20 20 20 19 17 14 12 13 12 12 12 15 18 18 19 18 18 16 15 15 13 12 12 12 12 12 12 12 12 9 11 9 8 6 6 7 8 9
10 9 9 9 10 11 14 16 17 17 19 20 21 20 20 20 18 20 19 15 15 16 13 12 13 16 16 16 16 15 16 17 17 17 16 15 14 13 13 12 12 13 13 12 12 8 9 8 7 7 7 8 9 10
11 10 9 9 11 12 13 15 17 18 18 20 20 20 20 19 19 18 15 17 17 12 12 13 15 16 16 16 14 14 14 13 13 13 12 12 14 14 13 13 13 13 12 11 8 6 6 6 8 8 9 9 10 10
10 9 10 10 12 12 14 15 17 19 19 20 19 19 19 18 18 18 17 18 16 14 14 15 14 15 15 13 13 13 13 14 14 14 13 13 13 13 13 12 12 12 12 10 8 7 8 7 9 10 10 11 11 11
9 11 13 14 13 14 16 16 18 19 20 19 19 20 19 17 17 16 16 16 17 17 13 11 11 16 15 14 16 14 14 14 13 13 13 13 13 12 12 12 12 11 12 10 9 9 9 9 9 11 12 12 12 12
11 12 12 9 13 14 16 19 19 20 20 21 20 19 17 18 16 16 16 15 15 17 14 12 16 18 17 16 15 13 13 14 14 13 13 13 13 12 12 12 12 12 12 12 12 12 10 10 11 11 11 11 11 11
10 15 13 17 18 17 20 19 20 20 20 21 20 18 18 17 16 16 16 15 14 15 14 17 18 17 17 16 16 15 13 13 13 13 12 13 13 13 13 13 13 12 12 12 12 12 12 11 11 11 11 10 9 10
11 17 17 18 18 19 19 21 21 20 20 20 19 16 14 13 16 18 17 17 16 16 16 17 17 17 17 16 14 14 13 13 13 13 12 12 12 12 13 13 12 11 11 12 12 12 11 11 11 11 11 10 10 10
17 17 17 19 18 20 19 20 20 21 21 19 18 18 17 15 17 19 19 17 17 16 17 16 17 16 16 15 14 13 13 12 12 12 11 11 11 11 11 11 10 10 11 11 11 11 11 11 11 11 11 11 10 10
16 18 18 18 19 19 20 20 21 21 18 19 19 19 18 18 19 19 17 17 17 17 17 16 16 16 15 14 14 14 14 13 13 13 13 13 12 12 11 11 11 11 11 10 9 10 10 10 10 10 10 10 10 10
18 19 18 19 19 20 21 22 20 19 18 18 19 19 19 19 18 17 17 17 18 18 18 17 16 16 16 15 15 14 14 14 14 14 15 14 13 12 12 11 11 11 11 11 11 10 9 10 10 10 11 11 11 11
19 18 18 19 20 21 21 20 18 17 18 19 19 19 20 19 18 17 17 18 18 18 18 18 17 17 17 16 16 15 15 14 14 13 13 13 13 12 12 11 11 11 11 11 11 11 11 11 11 11 11 11 10 11
19 18 19 19 20 19 18 19 20 19 18 17 19 19 19 19 19 19 17 17 17 18 18 18 18 18 17 17 16 16 15 15 14 13 12 13 13 12 12 12 11 11 11 11 11 11 11 11 11 11 11 11 11 11
19 20 20 20 20 19 18 18 19 18 18 18 19 19 20 20 19 20 15 16 18 18 18 16 16 17 16 16 16 15 14 15 14 13 12 12 12 12 12 12 12 12 11 12 12 12 11 11 11 11 11 11 10 10
Height
822 821 820 819 819 819 819 817 817 814 812 812 812 810 808 808 807 807 807 805 804 794 796 802 802 804 804 801 800 810 810 810 808 813 816 827 825 832 835 829 819 814 819 818 810 813 823 810 820 817 820 825 827 831
819 818 816 815 815 815 816 815 813 812 810 809 810 810 808 807 807 806 805 805 804 802 798 803 802 803 803 802 801 808 805 807 806 811 818 821 826 822 824 819 821 826 817 819 816 811 812 813 814 821 821 824 829 831
814 814 814 812 812 811 812 812 811 810 807 808 807 808 807 807 807 806 806 805 804 798 796 798 797 802 804 804 804 801 805 807 810 810 807 810 822 815 818 818 816 815 818 826 823 804 813 815 819 821 824 825 830 832
808 808 808 808 808 809 809 810 808 808 808 806 806 806 806 806 806 806 806 805 804 800 789 793 800 800 802 802 803 803 805 810 810 810 805 806 809 813 808 811 816 808 815 814 814 810 813 814 815 819 824 827 830 832
803 803 803 803 805 805 806 807 808 806 806 805 805 805 804 805 806 806 806 806 805 804 790 788 797 800 800 801 802 804 805 811 814 812 812 814 809 814 809 809 807 806 806 812 807 798 804 802 810 817 821 824 826 829
800 799 798 799 801 801 802 805 805 806 805 804 803 803 803 804 805 807 802 806 805 805 797 788 795 798 799 799 800 802 803 804 804 812 809 820 817 821 817 817 800 793 795 795 795 798 800 804 809 813 817 820 823 825
795 796 795 795 796 797 799 802 803 804 804 803 802 801 801 803 805 804 800 805 804 805 796 789 787 796 799 800 800 801 805 807 805 811 813 814 819 824 824 814 795 792 792 796 799 802 804 805 806 812 815 818 821 823
790 790 792 793 794 794 796 800 802 802 802 801 801 799 800 802 804 803 804 803 805 803 799 792 785 790 797 792 795 800 799 805 805 801 809 810 823 825 819 799 792 795 794 795 798 801 797 800 805 808 812 814 816 817
785 788 790 790 791 792 796 799 801 801 801 800 800 799 801 803 801 803 802 802 805 806 794 794 786 783 794 792 793 800 797 803 803 801 805 811 814 814 796 787 790 791 792 792 793 798 799 800 802 805 808 809 810 810
783 784 787 789 790 793 796 798 799 799 798 799 800 800 796 801 802 804 804 802 800 798 797 794 790 788 789 788 789 794 794 795 796 802 809 809 806 789 784 783 789 792 789 790 790 791 793 796 797 800 801 802 803 804
782 784 787 790 793 795 796 797 797 796 797 799 797 796 803 802 803 801 798 796 799 796 789 790 791 783 791 790 792 792 792 792 796 797 802 808 804 781 780 783 787 787 785 786 789 791 787 789 790 791 792 795 797 799
787 790 793 794 795 795 795 795 794 796 798 797 798 801 802 800 798 799 794 794 796 783 781 781 781 789 791 792 791 795 793 792 793 790 798 803 785 779 779 779 780 782 781 781 783 784 784 783 784 785 786 788 789 792
792 795 796 796 796 795 796 796 795 796 797 799 799 796 794 794 800 791 786 782 778 770 773 782 784 788 796 794 792 791 790 788 790 791 797 791 775 776 777 777 777 777 777 777 777 778 779 780 780 781 781 782 784 785
795 796 796 796 796 795 795 796 796 797 798 795 791 800 790 785 781 765 764 764 764 764 767 773 781 786 788 787 785 786 785 787 792 794 788 769 772 775 777 776 776 775 774 774 775 777 776 775 776 777 777 777 779 781
796 796 796 796 794 792 791 794 796 797 798 791 787 792 774 763 758 758 761 762 764 764 771 774 773 778 780 782 781 784 788 786 777 774 761 765 772 775 776 776 775 774 774 774 774 774 773 773 772 771 772 772 773 775
796 796 796 796 795 793 792 793 795 798 794 789 784 775 764 762 755 756 757 762 764 766 769 767 767 770 771 773 786 787 777 774 760 759 764 770 773 775 776 776 776 776 776 775 775 776 774 773 773 773 772 772 767 770
795 796 797 796 796 795 794 796 796 793 785 780 770 766 764 760 759 755 755 754 761 766 763 763 767 764 770 784 789 777 770 760 759 764 770 774 775 776 777 778 779 779 778 776 776 777 775 773 771 770 768 768 771 771
796 796 797 797 796 794 795 795 792 787 779 769 767 756 756 757 756 753 753 760 763 761 759 760 756 764 775 788 785 766 758 756 766 770 770 775 777 779 778 779 780 780 779 778 776 775 774 773 772 771 769 765 765 770
796 796 796 796 796 796 792 791 791 777 767 761 758 755 754 752 752 753 755 756 759 762 765 771 774 781 786 784 774 761 756 761 766 769 774 778 779 780 781 781 781 781 780 778 777 774 771 772 772 771 765 762 763 771
793 792 791 791 794 793 788 784 786 781 766 754 755 753 751 749 750 750 750 754 758 765 770 770 772 774 774 769 762 760 760 763 763 765 772 776 779 780 782 781 781 781 777 776 774 776 770 770 772 771 766 765 768 770
792 791 789 790 792 792 787 777 774 769 759 754 747 750 746 746 748 745 748 760 760 757 767 768 765 763 764 765 765 767 767 766 766 767 769 771 778 779 780 782 780 777 776 774 774 779 777 775 774 775 773 772 773 773
792 790 791 790 789 788 784 776 771 764 762 750 750 748 744 745 745 747 755 752 751 762 764 764 761 760 761 765 769 770 772 773 775 777 778 779 777 779 780 780 780 779 779 778 781 783 782 780 778 778 777 777 778 777
790 790 789 788 786 784 777 772 767 756 754 744 745 743 742 745 745 750 748 747 754 760 761 763 764 763 765 770 772 773 774 775 776 778 779 780 782 783 783 783 782 781 781 784 785 785 784 783 781 780 779 777 777 777
788 788 784 780 780 775 767 763 755 751 743 746 742 737 742 746 748 751 752 754 754 756 763 766 765 765 769 770 770 774 775 776 778 780 781 781 782 785 785 785 785 786 784 787 787 786 785 785 784 780 780 779 779 779
788 783 782 785 775 772 765 749 746 745 742 736 738 737 744 745 750 751 752 757 756 756 762 764 761 759 761 767 771 776 778 776 777 781 783 783 784 785 786 787 788 787 784 784 784 784 787 786 786 785 784 783 784 784
788 772 775 762 756 759 748 746 741 739 738 736 736 744 744 745 749 749 749 754 758 759 762 757 758 761 765 768 771 774 778 779 780 782 785 785 784 783 784 784 785 789 788 787 787 787 786 786 786 787 787 788 788 788
779 762 760 759 755 751 748 740 738 739 738 736 739 748 755 758 749 744 747 750 754 756 757 758 759 761 766 769 774 777 779 781 782 783 787 788 788 787 786 785 787 790 790 790 789 789 789 789 788 788 789 789 789 788
761 757 756 751 752 747 749 743 739 736 733 736 739 741 746 751 744 741 744 751 753 756 758 761 762 765 768 772 775 778 781 783 785 787 788 790 790 790 790 791 792 793 792 792 792 791 790 790 790 790 789 789 789 789
757 751 752 751 748 744 742 739 734 733 737 735 737 737 740 739 741 743 748 751 754 756 759 762 765 767 770 773 776 778 780 782 784 785 784 785 788 790 791 791 792 792 793 794 795 794 794 793 792 792 792 791 790 789
749 747 747 744 743 740 732 731 733 736 738 738 736 736 737 740 743 745 748 751 752 754 756 758 763 765 768 771 773 776 778 779 780 780 780 782 785 788 790 791 792 792 793 793 794 796 796 794 794 793 792 791 790 789
744 745 744 740 736 731 731 733 737 738 738 736 737 736 733 737 742 744 746 748 749 751 753 755 758 761 762 765 768 772 774 777 778 781 781 782 785 788 789 790 792 792 793 793 793 793 793 793 792 792 791 791 792 790
740 740 737 736 730 733 735 734 731 733 736 739 734 734 736 736 737 739 742 744 746 748 750 752 753 756 758 760 763 766 769 770 774 778 781 782 784 787 789 790 791 792 793 793 793 793 793 793 792 792 792 792 792 791
733 731 732 732 729 731 733 733 730 731 734 732 732 732 730 729 732 733 740 742 743 744 746 750 753 755 756 758 760 763 767 769 772 775 779 781 783 785 787 788 790 791 792 791 791 792 793 793 792 792 793 793 792 791
Wind_Speed
15 14 13 12 11 12 9 9 10 11 11 9 7 6 7 6 7 4 1 5 5 3 6 6 4 4 4 2 1 5 5 4 4 3 2 2 2 3 1 3 3 5 4 4 5 4 6 11 6 4 7 6 5 3
15 14 14 13 11 11 9 8 9 11 11 7 5 4 5 5 6 3 1 3 3 5 5 3 5 3 1 3 2 4 3 1 2 2 2 3 3 4 4 2 5 4 3 2 4 1 2 12 3 5 3 4 4 3
15 14 14 12 11 11 9 8 8 10 9 5 4 3 3 4 4 3 2 4 3 3 4 6 7 9 8 7 3 2 2 2 3 3 2 1 2 4 3 4 5 7 5 3 2 5 8 11 7 5 5 5 5 4
14 13 13 12 11 10 8 7 6 8 8 4 3 3 2 2 3 3 3 3 3 3 3 5 3 3 5 9 11 6 7 5 6 3 2 2 3 3 2 2 5 4 9 8 7 9 4 11 12 9 9 7 6 5
14 12 13 11 11 9 9 7 6 6 5 3 2 3 3 2 2 2 1 1 2 6 3 3 3 3 3 7 11 10 10 6 3 3 3 2 3 3 3 4 7 9 9 7 6 7 10 3 14 14 11 11 8 6
14 12 12 12 11 10 10 7 5 4 5 3 3 3 3 3 1 2 4 2 1 3 3 3 4 4 2 7 10 12 11 6 4 3 2 2 3 3 3 3 8 11 13 13 5 6 7 6 8 14 13 11 11 10
14 13 12 11 10 11 10 8 5 4 5 5 5 4 4 3 2 4 4 3 2 1 3 3 4 4 4 5 5 4 7 3 4 2 4 2 3 4 2 4 11 11 10 10 7 7 7 9 8 12 12 11 10 10
14 12 12 11 9 10 11 7 5 3 5 5 5 3 0 3 2 3 2 5 2 4 3 2 3 4 6 3 3 2 3 4 5 2 3 2 3 2 4 12 11 8 6 8 12 13 5 8 11 9 14 13 10 10
11 11 11 10 10 10 10 6 4 4 6 5 2 3 3 2 3 2 1 4 5 4 2 2 2 2 3 2 1 3 3 3 0 3 2 3 3 5 9 12 7 6 10 11 12 14 13 10 10 11 12 12 13 10
6 7 8 9 11 11 7 4 4 6 6 3 2 2 3 3 7 3 2 3 4 3 3 3 2 2 3 3 2 2 3 2 2 2 4 3 3 13 12 9 5 8 3 5 7 12 14 14 14 14 14 12 14 12
4 7 10 14 12 8 4 2 6 7 1 1 3 1 2 7 3 2 2 3 2 3 4 3 4 1 2 3 0 1 1 1 2 3 2 2 3 4 5 2 7 12 8 5 7 14 15 15 13 14 14 14 15 16
13 14 11 8 7 4 2 3 3 4 2 3 3 3 4 4 2 3 3 3 4 2 5 3 3 4 2 2 3 3 2 2 2 4 2 2 4 3 4 5 8 13 12 11 16 16 19 15 16 15 15 16 15 16
9 6 4 3 2 1 1 1 3 4 6 2 3 4 2 3 2 5 5 4 3 5 5 5 3 3 2 4 1 3 4 2 1 3 3 5 2 3 3 4 6 11 14 13 14 16 19 18 19 19 18 19 18 16
2 1 1 3 4 6 7 4 1 1 1 3 3 3 5 4 5 5 4 1 3 3 5 4 4 4 3 5 3 3 1 3 3 3 4 4 3 3 4 3 5 4 5 6 6 8 11 13 15 18 21 21 20 19
4 5 3 1 4 6 10 10 5 2 2 3 3 4 6 6 4 2 2 3 3 1 4 3 3 4 4 3 3 1 2 4 4 4 3 5 2 4 4 3 4 4 5 5 8 10 12 14 14 16 16 19 19 18
4 4 1 3 6 8 6 7 5 2 3 3 5 5 6 5 6 4 5 4 4 4 3 4 3 4 5 3 3 5 3 4 3 2 4 3 4 3 2 2 4 5 5 7 6 9 10 9 10 10 9 10 14 18
4 1 3 2 6 5 2 3 3 4 4 4 4 5 8 7 6 6 3 4 4 5 5 3 5 4 4 4 3 3 4 4 6 4 3 4 4 3 3 4 5 6 6 6 6 5 6 8 10 14 14 12 9 7
3 1 4 1 4 3 1 3 3 3 5 6 5 4 4 5 6 5 4 3 4 4 3 3 2 5 4 5 3 5 4 2 5 3 4 4 4 4 4 5 6 6 7 6 6 7 9 10 8 11 12 13 17 13
4 5 8 8 3 3 3 4 4 4 5 4 6 6 6 6 5 6 4 3 4 3 2 2 2 2 0 4 7 6 2 1 1 4 5 5 5 5 3 3 3 5 6 6 7 7 7 7 7 4 11 12 16 12
9 9 8 8 8 3 3 3 3 4 4 2 4 5 4 4 2 3 3 4 3 3 2 2 2 5 5 7 6 4 3 2 2 4 5 4 3 3 4 4 6 5 3 4 3 7 12 5 7 8 10 5 12 12
4 2 4 6 5 6 3 3 4 4 5 4 3 4 4 3 4 4 1 3 4 3 2 2 5 6 10 3 2 4 3 2 4 4 3 4 3 4 4 2 3 6 7 8 7 9 11 6 5 4 8 8 6 8
2 2 1 2 3 3 4 5 4 4 3 5 3 4 4 3 1 2 1 4 1 2 2 2 3 4 5 5 6 6 9 11 10 9 8 7 4 4 4 5 6 6 8 9 11 5 4 7 8 8 13 13 9 9
4 3 2 3 3 3 5 4 4 4 4 2 2 3 3 1 1 2 2 2 3 2 3 4 6 7 10 11 12 11 9 8 7 8 8 8 6 4 5 6 6 8 9 11 10 9 7 5 7 9 7 7 8 7
6 3 3 3 5 4 3 4 4 4 3 3 3 3 2 1 0 1 1 2 3 5 6 6 8 7 9 10 6 8 6 7 8 8 6 7 6 5 5 7 8 7 7 10 7 5 7 8 6 5 7 7 7 9
3 3 3 4 3 3 4 4 4 4 3 3 3 1 2 2 2 1 2 3 4 6 4 5 5 5 6 6 7 9 5 5 7 7 5 7 6 8 7 7 7 5 5 7 7 7 7 7 5 6 4 7 7 7
3 5 6 4 3 4 3 3 2 3 6 4 1 2 1 2 1 1 2 4 3 4 4 4 6 6 6 8 7 8 8 6 7 8 6 4 4 5 6 6 8 7 5 5 7 6 5 6 7 7 5 5 4 6
3 4 5 4 4 4 5 4 4 4 4 2 1 3 3 2 2 2 4 4 3 6 7 8 8 8 9 11 12 12 10 6 5 8 8 5 5 3 3 5 7 6 5 4 4 4 5 5 5 5 6 6 5 5
5 3 6 4 4 5 6 5 3 3 1 1 1 2 4 3 2 3 4 8 10 12 11 9 9 13 13 13 13 13 11 9 8 8 7 5 5 6 6 7 7 5 5 5 5 3 3 4 4 5 6 7 9 6
4 4 4 8 7 4 4 4 3 1 2 2 3 1 3 2 2 5 10 12 13 14 13 13 11 12 13 12 11 10 10 9 9 6 6 6 7 8 7 8 7 5 6 7 4 5 5 5 6 6 5 5 5 6
7 6 5 5 5 5 2 2 1 1 1 2 1 2 3 3 5 7 12 14 14 13 13 14 15 14 13 13 12 11 10 9 7 5 4 4 7 10 9 8 6 5 5 5 6 5 3 4 4 2 2 3 5 5
1 4 4 5 4 3 3 1 1 1 3 3 1 3 1 3 5 7 11 13 14 13 13 12 13 13 12 13 12 13 11 13 10 6 2 7 10 10 10 8 7 6 5 3 2 1 1 1 2 3 5 4 4 4
5 8 5 4 3 2 3 3 3 3 3 3 4 4 4 4 5 6 11 14 14 14 14 13 12 12 13 11 11 11 8 10 15 16 11 9 11 11 10 9 7 6 4 3 2 2 2 0 1 3 3 3 3 5
6 5 5 6 4 3 4 4 3 2 3 3 4 5 6 4 2 3 4 12 14 14 14 13 10 8 6 12 12 12 13 9 11 18 18 12 10 11 11 10 8 6 5 4 3 3 3 1 1 1 2 1 2 5
Wind_Direction
286 288 288 291 290 305 297 309 325 339 336 330 334 3 6 10 10 35 47 18 331 306 139 202 164 146 152 236 235 117 188 183 183 197 196 143 211 185 203 254 246 210 209 204 238 241 239 146 150 240 91 121 133 147
285 282 282 278 276 288 287 297 316 329 330 325 314 350 3 19 20 27 253 335 319 264 44 202 222 220 276 54 99 168 30 131 59 139 181 156 183 174 201 214 203 236 219 276 237 142 92 167 64 113 131 144 164 177
286 287 288 279 272 272 270 279 309 320 328 315 298 313 351 14 18 21 324 330 267 252 165 204 200 197 220 215 235 273 165 99 171 340 152 142 193 179 202 220 210 219 201 233 296 193 185 182 172 176 186 178 173 174
276 278 279 273 267 269 257 268 298 315 326 308 279 309 303 351 6 5 320 320 292 297 272 116 152 173 203 223 226 234 121 138 127 221 246 200 244 207 235 283 214 220 168 220 242 257 208 223 219 202 191 193 199 208
266 270 269 266 258 258 243 251 285 310 318 317 303 295 299 298 331 352 276 206 3 312 327 107 167 173 223 218 199 195 175 139 166 193 212 242 359 268 238 268 233 200 212 197 220 221 199 220 191 190 198 200 208 226
267 265 261 259 251 241 231 234 264 291 299 311 324 316 304 257 212 225 205 199 283 333 271 199 86 156 71 186 192 199 187 214 220 160 205 121 215 231 253 235 250 254 236 238 245 191 194 160 163 176 193 198 207 218
268 264 257 247 238 231 224 218 240 259 288 307 329 318 306 212 188 268 6 80 158 285 248 201 169 137 134 148 173 187 199 205 229 157 221 145 181 166 241 249 271 270 235 218 212 184 188 183 186 190 202 205 207 231
265 254 247 239 229 221 201 209 230 251 282 306 335 331 40 133 140 202 227 230 236 273 258 249 144 179 182 176 169 182 189 196 202 228 156 179 131 201 249 245 268 243 252 242 216 214 234 194 207 194 203 211 219 235
264 241 235 228 211 197 183 203 229 266 293 306 340 95 95 191 206 57 224 175 188 290 288 247 263 101 179 166 140 179 223 207 136 231 140 172 166 231 244 284 281 228 216 226 215 218 221 202 198 206 209 218 233 243
240 216 210 190 177 165 178 203 252 287 289 305 124 187 173 113 141 134 160 205 202 190 224 255 40 189 228 190 198 191 207 236 227 91 120 229 258 260 292 305 226 236 244 237 236 204 215 222 222 226 230 233 236 238
172 162 155 150 155 169 172 244 289 290 210 165 185 84 90 142 193 224 238 236 170 222 198 223 210 266 159 262 253 277 257 215 241 150 201 206 262 291 325 272 214 216 211 199 211 239 234 227 234 228 229 231 229 228
113 122 136 151 153 153 109 339 328 120 167 166 97 121 159 212 213 234 216 167 220 237 166 205 152 199 136 270 247 182 246 203 261 152 212 242 235 336 299 256 210 215 242 238 234 237 247 247 242 242 238 234 228 225
115 128 142 159 179 180 229 14 78 110 106 122 208 189 209 162 219 223 197 201 219 183 169 171 157 141 163 219 245 213 225 209 295 219 228 236 47 294 288 247 249 246 252 256 253 248 250 251 251 246 243 240 231 225
83 126 226 253 270 267 254 240 234 105 108 238 198 229 219 193 230 217 228 44 88 174 170 181 131 186 188 190 210 242 102 190 225 226 236 230 66 322 294 268 291 289 276 278 276 277 277 267 263 261 248 244 231 221
16 332 293 298 333 314 227 217 217 191 273 249 224 236 228 248 264 254 313 260 205 224 140 177 183 193 188 198 193 37 226 240 231 232 261 42 329 320 321 305 287 301 304 302 312 308 301 291 283 268 271 246 230 218
346 353 93 63 41 48 103 169 164 220 243 242 233 250 236 260 256 226 242 251 187 195 201 224 205 212 189 151 137 233 245 236 286 305 31 12 1 23 22 339 348 353 338 327 327 318 316 312 289 271 254 293 251 206
355 62 172 69 26 33 134 123 196 226 255 232 233 235 269 290 281 292 300 299 139 195 226 204 211 194 98 148 186 232 227 345 347 37 35 60 56 44 28 33 19 1 353 347 342 322 309 325 321 298 264 203 227 223
51 175 189 318 4 321 282 203 253 260 248 237 250 274 233 265 283 278 252 165 200 225 258 289 89 193 157 145 221 230 253 5 43 58 79 90 93 85 53 32 12 357 340 325 321 312 305 310 325 319 291 280 203 191
303 276 260 260 270 312 259 193 238 265 248 272 258 262 263 274 274 273 259 209 221 55 71 69 48 82 208 220 246 276 329 36 123 115 103 111 106 95 64 53 35 9 357 3 343 329 332 345 358 354 318 250 138 145
302 298 280 246 209 241 248 215 217 278 274 350 259 261 256 284 289 251 233 159 173 131 156 156 130 194 208 228 226 292 22 72 201 174 140 119 100 124 63 36 34 352 348 339 360 360 340 45 63 55 21 105 137 169
314 289 57 120 191 230 277 258 230 238 285 262 288 278 281 235 239 243 141 139 188 205 132 210 218 215 215 282 42 105 118 72 35 11 31 114 90 75 105 116 297 352 351 2 1 26 0 24 63 82 48 81 104 117
257 260 231 225 233 216 266 233 273 318 260 269 288 246 256 252 174 126 137 225 110 142 178 220 261 178 141 146 123 114 114 103 99 110 117 139 121 100 74 28 20 51 29 19 53 41 51 71 68 89 85 63 55 64
260 231 231 216 249 218 262 219 245 220 245 241 207 236 197 211 86 152 243 62 80 121 176 110 76 83 107 118 119 120 116 114 113 115 118 105 103 103 85 70 65 62 67 60 71 117 91 43 65 91 102 106 94 85
187 221 229 220 209 262 261 235 218 254 242 245 242 276 121 141 22 228 50 30 78 107 103 129 143 131 128 141 133 123 123 111 115 115 126 135 116 86 93 98 96 75 62 108 120 102 72 71 65 59 68 71 60 50
234 232 188 251 239 252 246 241 224 234 256 259 292 220 139 165 203 106 126 132 160 137 143 198 212 174 129 115 117 115 142 126 118 118 112 111 125 124 122 105 88 65 70 83 81 88 102 111 94 89 61 42 33 50
252 196 196 219 208 228 262 272 268 332 320 291 12 64 208 177 148 208 158 149 172 158 178 188 146 138 131 128 133 134 126 116 135 121 121 108 101 130 142 143 127 104 84 64 79 74 78 74 67 63 81 106 74 19
257 227 205 227 282 280 273 261 277 294 279 315 89 129 59 356 240 97 132 160 127 158 152 147 150 139 135 125 115 116 116 108 85 111 128 118 113 125 127 101 95 101 105 80 70 77 78 77 67 54 62 54 41 24
246 258 234 187 226 239 268 282 266 260 303 88 176 183 160 197 7 95 115 141 134 138 134 130 129 133 137 139 136 134 124 116 115 127 131 128 138 130 129 115 108 116 91 64 43 75 61 65 53 50 51 43 43 46
235 218 241 255 248 239 234 242 263 28 341 293 308 162 163 161 111 129 142 145 150 147 146 144 141 139 139 145 151 152 153 155 147 157 161 146 164 155 150 147 146 140 119 112 78 62 57 46 35 46 44 44 42 54
241 214 241 254 247 243 226 275 310 95 220 280 343 158 165 138 123 137 152 164 171 174 168 162 164 171 170 174 176 179 185 192 194 175 172 163 146 155 158 152 147 146 147 145 132 131 161 176 133 141 26 29 37 44
229 202 235 251 260 246 297 286 209 179 209 217 207 280 157 134 152 172 183 187 191 192 183 180 179 194 189 192 189 187 195 200 198 191 204 151 153 159 158 151 145 143 146 146 154 154 146 135 45 25 43 53 69 14
207 220 229 244 232 129 210 224 221 208 195 223 219 207 181 199 201 164 198 194 199 204 208 212 198 205 210 205 200 199 215 188 191 193 187 185 171 170 169 170 167 164 164 167 186 156 165 214 61 15 75 91 41 18
215 215 225 256 237 220 190 222 212 191 213 220 202 217 202 216 222 106 168 201 213 214 204 208 218 220 212 209 205 197 189 182 182 189 187 186 179 180 185 185 183 183 185 202 186 172 188 218 274 256 186 167 337 352